User: anonymous   Login
Location: Monroe
(41.9160°N, 83.3980°W)
Time: 12:47:10
(UTC-04:00)
Language:

deb Explorer IX - Orbit

View from above orbital plane
View from above orbital plane
View from above satellite
View from above satellite

Ground track
Ground track

The orbit data is extracted from the following two-line orbital elements,

1 00085U 61004C   15181.18491327  .00003277  00000-0  75601-3 0  9996
2 00085 038.7743 233.5461 0421708 348.5774 010.5636 14.13124281673511
Epoch (UTC): 30 June 2015 04:26:16
Eccentricity: 0.0421708
inclination: 38.7743°
perigee height: 544 km
apogee height: 1153 km
right ascension of ascending node: 233.5461°
argument of perigee: 348.5774°
revolutions per day: 14.13124281
mean anomaly at epoch: 10.5636°
orbit number at epoch: 67351

The dashed part of the orbit path shows where the satellite is in the earth's shadow,  

DLR